contact:dominique.lefevre@mio.osupytheas.fr, maurice.libes@osupytheas.fr, didier.mallarino@osupytheas.fr
Project:EMSO http://www.emso-fr.org/EMSO-France
Depth: 2436.0 m
Title:EMSO Ligure Ouest : Data MII capteur MICROCAT
DateTime_Computer,Latitude,Longitude,Temperature,Conductivity,Pressure,DateTime_Instrument
DateTime_Computer,Latitude,Longitude,degC,S m-1,dbar,DateTime_Instrument
2022-10-10T00:02:04Z,42.805,6.029,13.3012,4.60061,2470.52,2022-10-10T02:03:58Z
2022-10-10T00:05:07Z,42.805,6.029,13.3017,4.60057,2470.52,2022-10-10T02:07:01Z
2022-10-10T00:08:10Z,42.805,6.029,13.3011,4.60058,2470.52,2022-10-10T02:10:05Z
2022-10-10T00:11:13Z,42.805,6.029,13.3012,4.60057,2470.53,2022-10-10T02:13:08Z
2022-10-10T00:14:16Z,42.805,6.029,13.3014,4.60057,2470.52,2022-10-10T02:16:11Z
2022-10-10T00:17:19Z,42.805,6.029,13.3012,4.60054,2470.52,2022-10-10T02:19:14Z
2022-10-10T00:20:22Z,42.805,6.029,13.3016,4.60056,2470.544,2022-10-10T02:22:17Z
2022-10-10T00:23:25Z,42.805,6.029,13.3015,4.60067,2470.53,2022-10-10T02:25:20Z
2022-10-10T00:26:28Z,42.805,6.029,13.3009,4.60057,2470.52,2022-10-10T02:28:23Z
2022-10-10T00:29:31Z,42.805,6.029,13.3011,4.60055,2470.483,2022-10-10T02:31:26Z
2022-10-10T00:32:34Z,42.805,6.029,13.3009,4.60055,2470.53,2022-10-10T02:34:29Z
2022-10-10T00:35:38Z,42.805,6.029,13.3011,4.60056,2470.52,2022-10-10T02:37:32Z
2022-10-10T00:38:41Z,42.805,6.029,13.3008,4.60057,2470.497,2022-10-10T02:40:35Z
2022-10-10T00:41:44Z,42.805,6.029,13.3010,4.60054,2470.483,2022-10-10T02:43:38Z
2022-10-10T00:44:47Z,42.805,6.029,13.3004,4.60054,2470.483,2022-10-10T02:46:41Z
2022-10-10T00:47:50Z,42.805,6.029,13.3007,4.60054,2470.53,2022-10-10T02:49:45Z
2022-10-10T00:50:53Z,42.805,6.029,13.3010,4.60054,2470.507,2022-10-10T02:52:48Z
2022-10-10T00:53:56Z,42.805,6.029,13.3007,4.60057,2470.497,2022-10-10T02:55:51Z
2022-10-10T00:56:59Z,42.805,6.029,13.3010,4.60063,2470.483,2022-10-10T02:58:54Z
2022-10-10T01:00:02Z,42.805,6.029,13.3009,4.60062,2470.52,2022-10-10T03:01:57Z
2022-10-10T01:03:05Z,42.805,6.029,13.3010,4.60064,2470.46,2022-10-10T03:05:00Z
2022-10-10T01:06:08Z,42.805,6.029,13.3009,4.60064,2470.483,2022-10-10T03:08:03Z
2022-10-10T01:09:11Z,42.805,6.029,13.3006,4.60058,2470.483,2022-10-10T03:11:06Z
2022-10-10T01:12:14Z,42.805,6.029,13.3006,4.60068,2470.483,2022-10-10T03:14:09Z
2022-10-10T01:15:18Z,42.805,6.029,13.3006,4.60063,2470.483,2022-10-10T03:17:12Z
2022-10-10T01:18:21Z,42.805,6.029,13.3009,4.60063,2470.497,2022-10-10T03:20:15Z
2022-10-10T01:21:24Z,42.805,6.029,13.3012,4.60065,2470.52,2022-10-10T03:23:18Z
2022-10-10T01:24:27Z,42.805,6.029,13.3008,4.60058,2470.46,2022-10-10T03:26:21Z
2022-10-10T01:27:30Z,42.805,6.029,13.3009,4.60053,2470.497,2022-10-10T03:29:25Z
2022-10-10T01:30:33Z,42.805,6.029,13.3006,4.60067,2470.507,2022-10-10T03:32:28Z
2022-10-10T01:33:36Z,42.805,6.029,13.3008,4.60061,2470.483,2022-10-10T03:35:31Z
2022-10-10T01:36:39Z,42.805,6.029,13.3010,4.60062,2470.483,2022-10-10T03:38:34Z
2022-10-10T01:39:42Z,42.805,6.029,13.3009,4.60062,2470.474,2022-10-10T03:41:37Z
2022-10-10T01:42:45Z,42.805,6.029,13.3006,4.60062,2470.52,2022-10-10T03:44:40Z
2022-10-10T01:45:48Z,42.805,6.029,13.3006,4.60054,2470.483,2022-10-10T03:47:43Z
2022-10-10T01:48:51Z,42.805,6.029,13.3010,4.60057,2470.474,2022-10-10T03:50:46Z
2022-10-10T01:51:55Z,42.805,6.029,13.3003,4.60055,2470.437,2022-10-10T03:53:49Z
2022-10-10T01:54:58Z,42.805,6.029,13.3008,4.60063,2470.483,2022-10-10T03:56:52Z
2022-10-10T01:58:01Z,42.805,6.029,13.3009,4.60064,2470.497,2022-10-10T03:59:55Z
2022-10-10T02:01:04Z,42.805,6.029,13.3006,4.60053,2470.474,2022-10-10T04:02:58Z
2022-10-10T02:04:07Z,42.805,6.029,13.3009,4.60058,2470.497,2022-10-10T04:06:02Z
2022-10-10T02:07:10Z,42.805,6.029,13.3009,4.60062,2470.46,2022-10-10T04:09:05Z
2022-10-10T02:10:13Z,42.805,6.029,13.3004,4.60062,2470.483,2022-10-10T04:12:08Z
2022-10-10T02:13:16Z,42.805,6.029,13.3006,4.60064,2470.45,2022-10-10T04:15:11Z
2022-10-10T02:16:19Z,42.805,6.029,13.3010,4.60064,2470.52,2022-10-10T04:18:14Z
2022-10-10T02:19:22Z,42.805,6.029,13.3010,4.60057,2470.507,2022-10-10T04:21:17Z
2022-10-10T02:22:25Z,42.805,6.029,13.3008,4.60057,2470.474,2022-10-10T04:24:20Z
2022-10-10T02:25:28Z,42.805,6.029,13.3005,4.60052,2470.483,2022-10-10T04:27:23Z
2022-10-10T02:28:31Z,42.805,6.029,13.3009,4.60057,2470.497,2022-10-10T04:30:26Z
2022-10-10T02:31:35Z,42.805,6.029,13.3006,4.60053,2470.497,2022-10-10T04:33:29Z
2022-10-10T02:34:38Z,42.805,6.029,13.3010,4.60057,2470.483,2022-10-10T04:36:32Z
2022-10-10T02:37:41Z,42.805,6.029,13.3008,4.60056,2470.544,2022-10-10T04:39:35Z
2022-10-10T02:40:44Z,42.805,6.029,13.3012,4.60053,2470.483,2022-10-10T04:42:38Z
2022-10-10T02:43:47Z,42.805,6.029,13.3009,4.60057,2470.507,2022-10-10T04:45:42Z
2022-10-10T02:46:50Z,42.805,6.029,13.3010,4.60062,2470.483,2022-10-10T04:48:45Z
2022-10-10T02:49:53Z,42.805,6.029,13.3010,4.60059,2470.497,2022-10-10T04:51:48Z
2022-10-10T02:52:56Z,42.805,6.029,13.3006,4.60060,2470.52,2022-10-10T04:54:51Z
2022-10-10T02:55:59Z,42.805,6.029,13.3010,4.60055,2470.497,2022-10-10T04:57:54Z
2022-10-10T02:59:02Z,42.805,6.029,13.3013,4.60054,2470.52,2022-10-10T05:00:57Z
2022-10-10T03:02:05Z,42.805,6.029,13.3012,4.60058,2470.507,2022-10-10T05:04:00Z
2022-10-10T03:05:08Z,42.805,6.029,13.3007,4.60052,2470.52,2022-10-10T05:07:03Z
2022-10-10T03:08:12Z,42.805,6.029,13.3007,4.60057,2470.507,2022-10-10T05:10:06Z
2022-10-10T03:11:15Z,42.805,6.029,13.3013,4.60054,2470.567,2022-10-10T05:13:09Z
2022-10-10T03:14:18Z,42.805,6.029,13.3011,4.60064,2470.46,2022-10-10T05:16:12Z
2022-10-10T03:17:21Z,42.805,6.029,13.3011,4.60056,2470.507,2022-10-10T05:19:15Z
2022-10-10T03:20:24Z,42.805,6.029,13.3009,4.60057,2470.507,2022-10-10T05:22:18Z
2022-10-10T03:23:27Z,42.805,6.029,13.3009,4.60054,2470.483,2022-10-10T05:25:22Z
2022-10-10T03:26:30Z,42.805,6.029,13.3009,4.60054,2470.544,2022-10-10T05:28:25Z
2022-10-10T03:29:33Z,42.805,6.029,13.3008,4.60055,2470.53,2022-10-10T05:31:28Z
2022-10-10T03:32:36Z,42.805,6.029,13.3015,4.60059,2470.544,2022-10-10T05:34:31Z
2022-10-10T03:35:39Z,42.805,6.029,13.3006,4.60060,2470.53,2022-10-10T05:37:34Z
2022-10-10T03:38:42Z,42.805,6.029,13.3009,4.60057,2470.567,2022-10-10T05:40:37Z
2022-10-10T03:41:45Z,42.805,6.029,13.3009,4.60057,2470.52,2022-10-10T05:43:40Z
2022-10-10T03:44:48Z,42.805,6.029,13.3013,4.60060,2470.567,2022-10-10T05:46:43Z
2022-10-10T03:47:52Z,42.805,6.029,13.3009,4.60064,2470.567,2022-10-10T05:49:46Z
2022-10-10T03:50:55Z,42.805,6.029,13.3009,4.60055,2470.567,2022-10-10T05:52:49Z
2022-10-10T03:53:58Z,42.805,6.029,13.3009,4.60059,2470.591,2022-10-10T05:55:52Z
2022-10-10T03:57:01Z,42.805,6.029,13.3010,4.60056,2470.567,2022-10-10T05:58:55Z
2022-10-10T04:00:04Z,42.805,6.029,13.3009,4.60062,2470.553,2022-10-10T06:01:58Z
2022-10-10T04:03:07Z,42.805,6.029,13.3008,4.60057,2470.553,2022-10-10T06:05:02Z
2022-10-10T04:06:10Z,42.805,6.029,13.3013,4.60058,2470.553,2022-10-10T06:08:05Z
2022-10-10T04:09:13Z,42.805,6.029,13.3009,4.60060,2470.53,2022-10-10T06:11:08Z
2022-10-10T04:12:16Z,42.805,6.029,13.3007,4.60057,2470.567,2022-10-10T06:14:11Z
2022-10-10T04:15:19Z,42.805,6.029,13.3007,4.60055,2470.53,2022-10-10T06:17:14Z
2022-10-10T04:18:22Z,42.805,6.029,13.3009,4.60057,2470.553,2022-10-10T06:20:17Z
2022-10-10T04:21:25Z,42.805,6.029,13.3008,4.60061,2470.591,2022-10-10T06:23:20Z
2022-10-10T04:24:28Z,42.805,6.029,13.3011,4.60056,2470.591,2022-10-10T06:26:23Z
2022-10-10T04:27:32Z,42.805,6.029,13.3009,4.60057,2470.591,2022-10-10T06:29:26Z
2022-10-10T04:30:35Z,42.805,6.029,13.3010,4.60056,2470.614,2022-10-10T06:32:29Z
2022-10-10T04:33:38Z,42.805,6.029,13.3010,4.60062,2470.577,2022-10-10T06:35:32Z
2022-10-10T04:36:41Z,42.805,6.029,13.3004,4.60061,2470.614,2022-10-10T06:38:35Z
2022-10-10T04:39:44Z,42.805,6.029,13.3007,4.60059,2470.577,2022-10-10T06:41:39Z
2022-10-10T04:42:47Z,42.805,6.029,13.3008,4.60054,2470.614,2022-10-10T06:44:42Z
2022-10-10T04:45:50Z,42.805,6.029,13.3004,4.60064,2470.614,2022-10-10T06:47:45Z
2022-10-10T04:48:53Z,42.805,6.029,13.3006,4.60060,2470.6,2022-10-10T06:50:48Z
2022-10-10T04:51:56Z,42.805,6.029,13.3013,4.60055,2470.614,2022-10-10T06:53:51Z
2022-10-10T04:54:59Z,42.805,6.029,13.3011,4.60055,2470.624,2022-10-10T06:56:54Z
2022-10-10T04:58:02Z,42.805,6.029,13.3012,4.60054,2470.614,2022-10-10T06:59:57Z
2022-10-10T05:01:05Z,42.805,6.029,13.3006,4.60053,2470.586,2022-10-10T07:03:00Z
2022-10-10T05:04:08Z,42.805,6.029,13.3010,4.60055,2470.6,2022-10-10T07:06:03Z
2022-10-10T05:07:12Z,42.805,6.029,13.3009,4.60054,2470.624,2022-10-10T07:09:06Z
2022-10-10T05:10:15Z,42.805,6.029,13.3010,4.60054,2470.637,2022-10-10T07:12:09Z
2022-10-10T05:13:18Z,42.805,6.029,13.3011,4.60059,2470.646,2022-10-10T07:15:12Z
2022-10-10T05:16:21Z,42.805,6.029,13.3009,4.60056,2470.624,2022-10-10T07:18:15Z
2022-10-10T05:19:24Z,42.805,6.029,13.3014,4.60055,2470.661,2022-10-10T07:21:19Z
2022-10-10T05:22:27Z,42.805,6.029,13.3011,4.60058,2470.646,2022-10-10T07:24:22Z
2022-10-10T05:25:30Z,42.805,6.029,13.3007,4.60052,2470.577,2022-10-10T07:27:25Z
2022-10-10T05:28:33Z,42.805,6.029,13.3012,4.60059,2470.6,2022-10-10T07:30:28Z
2022-10-10T05:31:36Z,42.805,6.029,13.3011,4.60061,2470.693,2022-10-10T07:33:31Z
2022-10-10T05:34:39Z,42.805,6.029,13.3008,4.60056,2470.624,2022-10-10T07:36:34Z
2022-10-10T05:37:42Z,42.805,6.029,13.3011,4.60062,2470.661,2022-10-10T07:39:37Z
2022-10-10T05:40:45Z,42.805,6.029,13.3010,4.60057,2470.67,2022-10-10T07:42:40Z
2022-10-10T05:43:49Z,42.805,6.029,13.3012,4.60057,2470.61,2022-10-10T07:45:43Z
2022-10-10T05:46:52Z,42.805,6.029,13.3009,4.60054,2470.661,2022-10-10T07:48:46Z
2022-10-10T05:49:55Z,42.805,6.029,13.3011,4.60057,2470.684,2022-10-10T07:51:49Z
2022-10-10T05:52:58Z,42.805,6.029,13.3007,4.60054,2470.684,2022-10-10T07:54:52Z
2022-10-10T05:56:01Z,42.805,6.029,13.3011,4.60057,2470.661,2022-10-10T07:57:55Z
2022-10-10T05:59:04Z,42.805,6.029,13.3011,4.60056,2470.707,2022-10-10T08:00:59Z
2022-10-10T06:02:07Z,42.805,6.029,13.3010,4.60054,2470.684,2022-10-10T08:04:02Z
2022-10-10T06:05:10Z,42.805,6.029,13.3008,4.60054,2470.661,2022-10-10T08:07:05Z
2022-10-10T06:08:13Z,42.805,6.029,13.3012,4.60055,2470.684,2022-10-10T08:10:08Z
2022-10-10T06:11:16Z,42.805,6.029,13.3008,4.60054,2470.707,2022-10-10T08:13:11Z
2022-10-10T06:14:19Z,42.805,6.029,13.3011,4.60053,2470.646,2022-10-10T08:16:14Z
2022-10-10T06:17:22Z,42.805,6.029,13.3008,4.60056,2470.646,2022-10-10T08:19:17Z
2022-10-10T06:20:25Z,42.805,6.029,13.3011,4.60052,2470.693,2022-10-10T08:22:20Z
2022-10-10T06:23:28Z,42.805,6.029,13.3009,4.60053,2470.693,2022-10-10T08:25:23Z
2022-10-10T06:26:32Z,42.805,6.029,13.3008,4.60052,2470.646,2022-10-10T08:28:26Z
2022-10-10T06:29:35Z,42.805,6.029,13.3014,4.60055,2470.67,2022-10-10T08:31:29Z
2022-10-10T06:32:38Z,42.805,6.029,13.3007,4.60053,2470.693,2022-10-10T08:34:32Z
2022-10-10T06:35:41Z,42.805,6.029,13.3008,4.60054,2470.67,2022-10-10T08:37:36Z
2022-10-10T06:38:44Z,42.805,6.029,13.3007,4.60054,2470.67,2022-10-10T08:40:39Z
2022-10-10T06:41:47Z,42.805,6.029,13.3006,4.60054,2470.693,2022-10-10T08:43:42Z
2022-10-10T06:44:50Z,42.805,6.029,13.3010,4.60053,2470.721,2022-10-10T08:46:45Z
2022-10-10T06:47:53Z,42.805,6.029,13.3006,4.60053,2470.67,2022-10-10T08:49:48Z
2022-10-10T06:50:56Z,42.805,6.029,13.3009,4.60057,2470.684,2022-10-10T08:52:51Z
2022-10-10T06:53:59Z,42.805,6.029,13.3011,4.60058,2470.684,2022-10-10T08:55:54Z
2022-10-10T06:57:02Z,42.805,6.029,13.3008,4.60056,2470.693,2022-10-10T08:58:57Z
2022-10-10T07:00:05Z,42.805,6.029,13.3009,4.60054,2470.693,2022-10-10T09:02:00Z
2022-10-10T07:03:09Z,42.805,6.029,13.3006,4.60054,2470.67,2022-10-10T09:05:03Z
2022-10-10T07:06:12Z,42.805,6.029,13.3006,4.60057,2470.707,2022-10-10T09:08:06Z
2022-10-10T07:09:15Z,42.805,6.029,13.3013,4.60056,2470.693,2022-10-10T09:11:09Z
2022-10-10T07:12:18Z,42.805,6.029,13.3009,4.60064,2470.73,2022-10-10T09:14:12Z
2022-10-10T07:15:21Z,42.805,6.029,13.3009,4.60054,2470.67,2022-10-10T09:17:15Z
2022-10-10T07:18:24Z,42.805,6.029,13.3011,4.60057,2470.693,2022-10-10T09:20:19Z
2022-10-10T07:21:27Z,42.805,6.029,13.3011,4.60060,2470.67,2022-10-10T09:23:22Z
2022-10-10T07:24:30Z,42.805,6.029,13.3011,4.60057,2470.717,2022-10-10T09:26:25Z
2022-10-10T07:27:33Z,42.805,6.029,13.3009,4.60060,2470.717,2022-10-10T09:29:28Z
2022-10-10T07:30:36Z,42.805,6.029,13.3011,4.60059,2470.707,2022-10-10T09:32:31Z
2022-10-10T07:33:39Z,42.805,6.029,13.3010,4.60055,2470.693,2022-10-10T09:35:34Z
2022-10-10T07:36:42Z,42.805,6.029,13.3009,4.60054,2470.693,2022-10-10T09:38:37Z
2022-10-10T07:39:45Z,42.805,6.029,13.3008,4.60058,2470.707,2022-10-10T09:41:40Z
2022-10-10T07:42:49Z,42.805,6.029,13.3011,4.60055,2470.717,2022-10-10T09:44:43Z
2022-10-10T07:45:52Z,42.805,6.029,13.3010,4.60055,2470.684,2022-10-10T09:47:46Z
2022-10-10T07:48:55Z,42.805,6.029,13.3006,4.60056,2470.693,2022-10-10T09:50:49Z
2022-10-10T07:51:58Z,42.805,6.029,13.3007,4.60055,2470.693,2022-10-10T09:53:52Z
2022-10-10T07:55:01Z,42.805,6.029,13.3008,4.60062,2470.707,2022-10-10T09:56:56Z
2022-10-10T07:58:04Z,42.805,6.029,13.3008,4.60058,2470.646,2022-10-10T09:59:59Z
2022-10-10T08:01:07Z,42.805,6.029,13.3011,4.60061,2470.693,2022-10-10T10:03:02Z
2022-10-10T08:04:10Z,42.805,6.029,13.3007,4.60057,2470.73,2022-10-10T10:06:05Z
2022-10-10T08:07:13Z,42.805,6.029,13.3014,4.60057,2470.693,2022-10-10T10:09:08Z
2022-10-10T08:10:16Z,42.805,6.029,13.3014,4.60057,2470.693,2022-10-10T10:12:11Z
2022-10-10T08:13:19Z,42.805,6.029,13.3014,4.60062,2470.693,2022-10-10T10:15:14Z
2022-10-10T08:16:22Z,42.805,6.029,13.3019,4.60054,2470.67,2022-10-10T10:18:17Z
2022-10-10T08:19:26Z,42.805,6.029,13.3011,4.60057,2470.67,2022-10-10T10:21:20Z
2022-10-10T08:22:29Z,42.805,6.029,13.3015,4.60054,2470.707,2022-10-10T10:24:23Z
2022-10-10T08:25:32Z,42.805,6.029,13.3014,4.60055,2470.661,2022-10-10T10:27:26Z
2022-10-10T08:28:35Z,42.805,6.029,13.3012,4.60055,2470.684,2022-10-10T10:30:29Z
2022-10-10T08:31:38Z,42.805,6.029,13.3014,4.60055,2470.693,2022-10-10T10:33:32Z
2022-10-10T08:34:41Z,42.805,6.029,13.3014,4.60053,2470.693,2022-10-10T10:36:36Z
2022-10-10T08:37:44Z,42.805,6.029,13.3009,4.60058,2470.684,2022-10-10T10:39:39Z
2022-10-10T08:40:47Z,42.805,6.029,13.3014,4.60060,2470.707,2022-10-10T10:42:42Z
2022-10-10T08:43:50Z,42.805,6.029,13.3017,4.60054,2470.684,2022-10-10T10:45:45Z
2022-10-10T08:46:53Z,42.805,6.029,13.3014,4.60054,2470.707,2022-10-10T10:48:48Z
2022-10-10T08:49:56Z,42.805,6.029,13.3021,4.60054,2470.707,2022-10-10T10:51:51Z
2022-10-10T08:52:59Z,42.805,6.029,13.3014,4.60053,2470.67,2022-10-10T10:54:54Z
2022-10-10T08:56:02Z,42.805,6.029,13.3009,4.60054,2470.707,2022-10-10T10:57:57Z
2022-10-10T08:59:06Z,42.805,6.029,13.3014,4.60055,2470.684,2022-10-10T11:01:00Z
2022-10-10T09:02:09Z,42.805,6.029,13.3011,4.60052,2470.67,2022-10-10T11:04:03Z
2022-10-10T09:05:12Z,42.805,6.029,13.3016,4.60055,2470.67,2022-10-10T11:07:06Z
2022-10-10T09:08:15Z,42.805,6.029,13.3011,4.60052,2470.707,2022-10-10T11:10:09Z
2022-10-10T09:11:18Z,42.805,6.029,13.3011,4.60053,2470.646,2022-10-10T11:13:13Z
2022-10-10T09:14:21Z,42.805,6.029,13.3009,4.60052,2470.646,2022-10-10T11:16:16Z
2022-10-10T09:17:24Z,42.805,6.029,13.3010,4.60056,2470.684,2022-10-10T11:19:19Z
2022-10-10T09:20:27Z,42.805,6.029,13.3009,4.60051,2470.624,2022-10-10T11:22:22Z
2022-10-10T09:23:30Z,42.805,6.029,13.3009,4.60052,2470.646,2022-10-10T11:25:25Z
2022-10-10T09:26:33Z,42.805,6.029,13.3010,4.60052,2470.646,2022-10-10T11:28:28Z
2022-10-10T09:29:36Z,42.805,6.029,13.3007,4.60054,2470.614,2022-10-10T11:31:31Z
2022-10-10T09:32:39Z,42.805,6.029,13.3011,4.60052,2470.661,2022-10-10T11:34:34Z
2022-10-10T09:35:43Z,42.805,6.029,13.3008,4.60052,2470.661,2022-10-10T11:37:37Z
2022-10-10T09:38:46Z,42.805,6.029,13.3006,4.60052,2470.637,2022-10-10T11:40:40Z
2022-10-10T09:41:49Z,42.805,6.029,13.3009,4.60051,2470.661,2022-10-10T11:43:43Z
2022-10-10T09:44:52Z,42.805,6.029,13.3006,4.60052,2470.637,2022-10-10T11:46:46Z
2022-10-10T09:47:55Z,42.805,6.029,13.3009,4.60052,2470.661,2022-10-10T11:49:50Z
2022-10-10T09:50:58Z,42.805,6.029,13.3006,4.60052,2470.637,2022-10-10T11:52:53Z
2022-10-10T09:54:01Z,42.805,6.029,13.3009,4.60053,2470.661,2022-10-10T11:55:56Z
2022-10-10T09:57:04Z,42.805,6.029,13.3010,4.60052,2470.646,2022-10-10T11:58:59Z
2022-10-10T10:00:07Z,42.805,6.029,13.3012,4.60052,2470.646,2022-10-10T12:02:02Z
2022-10-10T10:03:10Z,42.805,6.029,13.3013,4.60052,2470.624,2022-10-10T12:05:05Z
2022-10-10T10:06:13Z,42.805,6.029,13.3011,4.60052,2470.624,2022-10-10T12:08:08Z
2022-10-10T10:09:16Z,42.805,6.029,13.3011,4.60052,2470.637,2022-10-10T12:11:11Z
2022-10-10T10:12:20Z,42.805,6.029,13.3011,4.60052,2470.6,2022-10-10T12:14:14Z
2022-10-10T10:15:23Z,42.805,6.029,13.3009,4.60051,2470.624,2022-10-10T12:17:17Z
2022-10-10T10:18:26Z,42.805,6.029,13.3009,4.60052,2470.646,2022-10-10T12:20:20Z
2022-10-10T10:21:29Z,42.805,6.029,13.3011,4.60053,2470.6,2022-10-10T12:23:23Z
2022-10-10T10:24:32Z,42.805,6.029,13.3009,4.60060,2470.661,2022-10-10T12:26:27Z
2022-10-10T10:27:35Z,42.805,6.029,13.3009,4.60053,2470.624,2022-10-10T12:29:30Z
2022-10-10T10:30:38Z,42.805,6.029,13.3010,4.60054,2470.624,2022-10-10T12:32:33Z
2022-10-10T10:33:41Z,42.805,6.029,13.3008,4.60052,2470.624,2022-10-10T12:35:36Z
2022-10-10T10:36:44Z,42.805,6.029,13.3010,4.60052,2470.614,2022-10-10T12:38:39Z
2022-10-10T10:39:47Z,42.805,6.029,13.3008,4.60058,2470.6,2022-10-10T12:41:42Z
2022-10-10T10:42:50Z,42.805,6.029,13.3013,4.60053,2470.6,2022-10-10T12:44:45Z
2022-10-10T10:45:54Z,42.805,6.029,13.3006,4.60060,2470.6,2022-10-10T12:47:48Z
2022-10-10T10:48:57Z,42.805,6.029,13.3011,4.60057,2470.6,2022-10-10T12:50:51Z
2022-10-10T10:52:00Z,42.805,6.029,13.3007,4.60061,2470.6,2022-10-10T12:53:54Z
2022-10-10T10:55:03Z,42.805,6.029,13.3009,4.60056,2470.591,2022-10-10T12:56:57Z
2022-10-10T10:58:06Z,42.805,6.029,13.3009,4.60054,2470.6,2022-10-10T13:00:01Z
2022-10-10T11:01:09Z,42.805,6.029,13.3012,4.60055,2470.614,2022-10-10T13:03:04Z
2022-10-10T11:04:12Z,42.805,6.029,13.3010,4.60053,2470.591,2022-10-10T13:06:07Z
2022-10-10T11:07:15Z,42.805,6.029,13.3011,4.60052,2470.637,2022-10-10T13:09:10Z
2022-10-10T11:10:18Z,42.805,6.029,13.3009,4.60052,2470.591,2022-10-10T13:12:13Z
2022-10-10T11:13:21Z,42.805,6.029,13.3006,4.60052,2470.577,2022-10-10T13:15:16Z
2022-10-10T11:16:24Z,42.805,6.029,13.3011,4.60052,2470.6,2022-10-10T13:18:19Z
2022-10-10T11:19:27Z,42.805,6.029,13.3014,4.60053,2470.591,2022-10-10T13:21:22Z
2022-10-10T11:22:30Z,42.805,6.029,13.3011,4.60052,2470.553,2022-10-10T13:24:25Z
2022-10-10T11:25:34Z,42.805,6.029,13.3011,4.60054,2470.577,2022-10-10T13:27:28Z
2022-10-10T11:28:37Z,42.805,6.029,13.3010,4.60053,2470.577,2022-10-10T13:30:31Z
2022-10-10T11:31:40Z,42.805,6.029,13.3009,4.60059,2470.591,2022-10-10T13:33:34Z
2022-10-10T11:34:43Z,42.805,6.029,13.3012,4.60057,2470.567,2022-10-10T13:36:37Z
2022-10-10T11:37:46Z,42.805,6.029,13.3011,4.60059,2470.591,2022-10-10T13:39:41Z
2022-10-10T11:40:49Z,42.805,6.029,13.3014,4.60057,2470.53,2022-10-10T13:42:44Z
2022-10-10T11:43:52Z,42.805,6.029,13.3030,4.60061,2470.567,2022-10-10T13:45:47Z
2022-10-10T11:46:55Z,42.805,6.029,13.3019,4.60058,2470.53,2022-10-10T13:48:50Z
2022-10-10T11:49:58Z,42.805,6.029,13.3041,4.60092,2470.577,2022-10-10T13:51:53Z
2022-10-10T11:53:01Z,42.805,6.029,13.3036,4.60108,2470.553,2022-10-10T13:54:56Z
2022-10-10T11:56:04Z,42.805,6.029,13.3024,4.60102,2470.544,2022-10-10T13:57:59Z
2022-10-10T11:59:07Z,42.805,6.029,13.3050,4.60099,2470.577,2022-10-10T14:01:02Z
2022-10-10T12:02:11Z,42.805,6.029,13.3043,4.60092,2470.53,2022-10-10T14:04:05Z
2022-10-10T12:05:14Z,42.805,6.029,13.3046,4.60126,2470.544,2022-10-10T14:07:08Z
2022-10-10T12:08:17Z,42.805,6.029,13.3040,4.60081,2470.507,2022-10-10T14:10:11Z
2022-10-10T12:11:20Z,42.805,6.029,13.3042,4.60110,2470.507,2022-10-10T14:13:14Z
2022-10-10T12:14:23Z,42.805,6.029,13.3038,4.60088,2470.53,2022-10-10T14:16:18Z
2022-10-10T12:17:26Z,42.805,6.029,13.3048,4.60137,2470.567,2022-10-10T14:19:21Z
2022-10-10T12:20:29Z,42.805,6.029,13.3044,4.60146,2470.53,2022-10-10T14:22:24Z
2022-10-10T12:23:32Z,42.805,6.029,13.3053,4.60117,2470.52,2022-10-10T14:25:27Z
2022-10-10T12:26:35Z,42.805,6.029,13.3046,4.60102,2470.53,2022-10-10T14:28:30Z
2022-10-10T12:29:38Z,42.805,6.029,13.3059,4.60107,2470.544,2022-10-10T14:31:33Z
2022-10-10T12:32:41Z,42.805,6.029,13.3016,4.60081,2470.507,2022-10-10T14:34:36Z
2022-10-10T12:35:44Z,42.805,6.029,13.3019,4.60117,2470.567,2022-10-10T14:37:39Z
2022-10-10T12:38:48Z,42.805,6.029,13.3015,4.60080,2470.53,2022-10-10T14:40:42Z
2022-10-10T12:41:51Z,42.805,6.029,13.3012,4.60077,2470.507,2022-10-10T14:43:45Z
2022-10-10T12:44:54Z,42.805,6.029,13.3012,4.60070,2470.544,2022-10-10T14:46:48Z
2022-10-10T12:47:57Z,42.805,6.029,13.3006,4.60064,2470.507,2022-10-10T14:49:51Z
2022-10-10T12:51:00Z,42.805,6.029,13.3010,4.60064,2470.53,2022-10-10T14:52:55Z
2022-10-10T12:54:03Z,42.805,6.029,13.3011,4.60057,2470.53,2022-10-10T14:55:58Z
2022-10-10T12:57:06Z,42.805,6.029,13.3011,4.60060,2470.53,2022-10-10T14:59:01Z
2022-10-10T13:00:09Z,42.805,6.029,13.3010,4.60054,2470.507,2022-10-10T15:02:04Z
2022-10-10T13:03:12Z,42.805,6.029,13.3010,4.60053,2470.544,2022-10-10T15:05:07Z
2022-10-10T13:06:15Z,42.805,6.029,13.3010,4.60057,2470.53,2022-10-10T15:08:10Z
2022-10-10T13:09:18Z,42.805,6.029,13.3012,4.60058,2470.52,2022-10-10T15:11:13Z
2022-10-10T13:12:21Z,42.805,6.029,13.3011,4.60057,2470.544,2022-10-10T15:14:16Z
2022-10-10T13:15:24Z,42.805,6.029,13.3010,4.60060,2470.483,2022-10-10T15:17:19Z
2022-10-10T13:18:28Z,42.805,6.029,13.3010,4.60058,2470.52,2022-10-10T15:20:22Z
2022-10-10T13:21:31Z,42.805,6.029,13.3006,4.60059,2470.507,2022-10-10T15:23:25Z
2022-10-10T13:24:34Z,42.805,6.029,13.3007,4.60055,2470.507,2022-10-10T15:26:28Z
2022-10-10T13:27:37Z,42.805,6.029,13.3006,4.60056,2470.53,2022-10-10T15:29:32Z
2022-10-10T13:30:40Z,42.805,6.029,13.3008,4.60056,2470.497,2022-10-10T15:32:35Z
2022-10-10T13:33:43Z,42.805,6.029,13.3009,4.60055,2470.507,2022-10-10T15:35:38Z
2022-10-10T13:36:46Z,42.805,6.029,13.3009,4.60055,2470.507,2022-10-10T15:38:41Z
2022-10-10T13:39:49Z,42.805,6.029,13.3014,4.60057,2470.507,2022-10-10T15:41:44Z
2022-10-10T13:42:52Z,42.805,6.029,13.3009,4.60059,2470.483,2022-10-10T15:44:47Z
2022-10-10T13:45:55Z,42.805,6.029,13.3007,4.60063,2470.544,2022-10-10T15:47:50Z
2022-10-10T13:48:58Z,42.805,6.029,13.3011,4.60069,2470.544,2022-10-10T15:50:53Z
2022-10-10T13:52:02Z,42.805,6.029,13.3006,4.60054,2470.507,2022-10-10T15:53:56Z
2022-10-10T13:55:05Z,42.805,6.029,13.3011,4.60055,2470.52,2022-10-10T15:56:59Z
2022-10-10T13:58:08Z,42.805,6.029,13.3004,4.60058,2470.507,2022-10-10T16:00:02Z
2022-10-10T14:01:11Z,42.805,6.029,13.3011,4.60054,2470.53,2022-10-10T16:03:05Z
2022-10-10T14:04:14Z,42.805,6.029,13.3007,4.60052,2470.46,2022-10-10T16:06:09Z
2022-10-10T14:07:17Z,42.805,6.029,13.3007,4.60052,2470.52,2022-10-10T16:09:12Z
2022-10-10T14:10:20Z,42.805,6.029,13.3010,4.60063,2470.52,2022-10-10T16:12:15Z
2022-10-10T14:13:23Z,42.805,6.029,13.3011,4.60055,2470.53,2022-10-10T16:15:18Z
2022-10-10T14:16:26Z,42.805,6.029,13.3009,4.60059,2470.52,2022-10-10T16:18:21Z
2022-10-10T14:19:29Z,42.805,6.029,13.3013,4.60056,2470.483,2022-10-10T16:21:24Z
2022-10-10T14:22:32Z,42.805,6.029,13.3008,4.60052,2470.507,2022-10-10T16:24:27Z
2022-10-10T14:25:35Z,42.805,6.029,13.3008,4.60053,2470.483,2022-10-10T16:27:30Z
2022-10-10T14:28:38Z,42.805,6.029,13.3010,4.60053,2470.483,2022-10-10T16:30:33Z
2022-10-10T14:31:42Z,42.805,6.029,13.3011,4.60052,2470.544,2022-10-10T16:33:36Z
2022-10-10T14:34:45Z,42.805,6.029,13.3009,4.60053,2470.52,2022-10-10T16:36:39Z
2022-10-10T14:37:48Z,42.805,6.029,13.3009,4.60057,2470.507,2022-10-10T16:39:42Z
2022-10-10T14:40:51Z,42.805,6.029,13.3011,4.60055,2470.497,2022-10-10T16:42:46Z
2022-10-10T14:43:54Z,42.805,6.029,13.3011,4.60054,2470.507,2022-10-10T16:45:49Z
2022-10-10T14:46:57Z,42.805,6.029,13.3011,4.60053,2470.507,2022-10-10T16:48:52Z
2022-10-10T14:50:00Z,42.805,6.029,13.3008,4.60053,2470.507,2022-10-10T16:51:55Z
2022-10-10T14:53:03Z,42.805,6.029,13.3008,4.60055,2470.507,2022-10-10T16:54:58Z
2022-10-10T14:56:06Z,42.805,6.029,13.3008,4.60054,2470.507,2022-10-10T16:58:01Z
2022-10-10T14:59:09Z,42.805,6.029,13.3010,4.60056,2470.544,2022-10-10T17:01:04Z
2022-10-10T15:02:12Z,42.805,6.029,13.3011,4.60053,2470.53,2022-10-10T17:04:07Z